[[{"header":{"parameterUnit":"m.s-1","parameterCategory":1,"la1":30.2991,"la2":30.254,"lo1":-89.0895,"lo2":-89.0444,"dy":0.0017,"dx":0.0017,"nx":28,"ny":28,"refTime":"2023-09-12T21:00:00:Z","depth":0,"parameterNumber":2,"parameterNumberName":"U-component_of_WINDS"},"data":[0,0,0,0,0,0,0,0,0,0,0,0,0,0,0,0,0,0,0,0,0,0,0,0,0,0,0,0,0,0,0,0,0,0,0,0,0,0,0,0,0,0,0,0,0,0,0,0,0,0,0,0,0,0,0,0,0,0,-1.4958,-1.4957,0,-1.4939,-1.4939,-1.4939,-1.4895,-1.4894,-1.4893,-1.4893,-1.4874,-1.4874,-1.4875,0,0,0,0,0,0,0,0,0,0,0,0,0,-1.4956,-1.4956,-1.4958,-1.4957,-1.4957,-1.4939,-1.4939,-1.4938,-1.4895,-1.4894,-1.4893,-1.4892,-1.4874,-1.4874,-1.4875,0,0,0,0,0,0,0,0,0,0,0,0,0,-1.4949,-1.4956,-1.4958,-1.4933,-1.4931,-1.4939,-1.4939,-1.4938,-1.4896,-1.4894,-1.4893,-1.4892,-1.4874,-1.4874,-1.4875,-1.4905,0,0,-1.4876,-1.4877,0,0,0,0,0,0,0,0,-1.4949,-1.4949,-1.4937,-1.4935,-1.4932,-1.4918,-1.4931,-1.4927,-1.4896,-1.4909,-1.4893,-1.4891,-1.489,-1.4889,-1.4888,-1.4904,-1.4903,-1.4876,-1.4877,-1.4877,-1.4877,0,0,0,0,0,0,0,-1.495,-1.4949,-1.495,-1.4937,-1.4934,-1.4923,-1.4921,-1.493,-1.4907,-1.4908,-1.4905,-1.4903,-1.4888,-1.4888,-1.4888,-1.4903,-1.4876,-1.4877,-1.4877,-1.4877,-1.4942,-1.4943,0,0,0,0,0,0,-1.4954,-1.495,-1.4951,-1.495,-1.4938,-1.4925,-1.4922,-1.4924,-1.4907,-1.4903,-1.4904,-1.4901,-1.4888,-1.4887,-1.4887,-1.4921,-1.4877,-1.4877,-1.4878,-1.4941,-1.4942,-1.4944,0,0,0,0,0,0,-1.4954,-1.4954,-1.4952,-1.4949,-1.4948,-1.4926,-1.4929,-1.4924,-1.4924,-1.4904,-1.49,-1.4908,-1.4887,-1.4886,-1.4901,-1.492,-1.4878,-1.4878,-1.4939,-1.4941,-1.4943,-1.4989,0,0,0,0,0,0,-1.4954,-1.4954,-1.4966,-1.495,-1.4948,-1.4966,-1.493,-1.4925,-1.4925,-1.4921,-1.4907,-1.4903,-1.4886,-1.49,-1.4901,-1.492,-1.4879,-1.4937,-1.494,-1.4942,-1.4986,-1.4993,-1.4999,0,0,0,0,0,-1.4954,-1.498,-1.4967,-1.4967,-1.4962,-1.4967,-1.4966,-1.4945,-1.4927,-1.4938,-1.4925,-1.4904,-1.4917,-1.4902,-1.4903,-1.4922,-1.4936,-1.4939,-1.4942,-1.4983,-1.4992,-1.4999,0,0,0,0,0,0,-1.4999,-1.4977,-1.4962,-1.4984,-1.4978,-1.496,-1.4973,-1.4955,-1.4954,-1.495,-1.4924,-1.4921,-1.4939,-1.4932,-1.4915,-1.495,-1.4923,-1.4927,-1.4954,-1.4962,-1.4968,-1.497,-1.4879,0,0,0,0,0,-1.5012,-1.5018,-1.4998,-1.5019,-1.5017,-1.4996,-1.4997,-1.4981,-1.4974,-1.4971,-1.4959,-1.4953,-1.4956,-1.4958,-1.496,-1.4984,-1.4981,-1.4998,-1.5004,-1.5009,-1.5013,-1.5025,-1.5032,-1.4954,-1.4954,-1.4954,0,0,-1.5038,-1.5026,-1.5032,-1.5028,-1.5021,-1.5028,-1.4994,-1.5003,-1.5007,-1.4973,-1.4986,-1.4977,-1.4968,-1.4988,-1.4996,-1.4982,-1.5033,-1.5013,-1.5018,-1.5018,-1.5029,-1.5037,-1.5043,-1.4956,-1.4956,-1.4956,0,0,-1.5089,-1.5081,-1.5097,-1.5091,-1.5081,-1.5067,-1.507,-1.5055,-1.5048,-1.506,-1.5034,-1.5039,-1.5045,-1.5039,-1.5037,-1.5085,-1.5065,-1.5086,-1.5119,-1.5132,-1.5138,-1.5143,-1.516,-1.5167,-1.509,-1.509,-1.509,0,-1.5122,-1.5132,-1.5108,-1.5118,-1.5117,-1.5085,-1.5101,-1.5096,-1.5088,-1.5088,-1.5072,-1.5078,-1.507,-1.5087,-1.5099,-1.5098,-1.5102,-1.5088,-1.5139,-1.5144,-1.5148,-1.5164,-1.5171,-1.5092,-1.5092,-1.5092,-1.5092,0,-1.5173,-1.518,-1.5194,-1.5186,-1.5187,-1.52,-1.5178,-1.5181,-1.5165,-1.5152,-1.5165,-1.5154,-1.5152,-1.5155,-1.514,-1.5171,-1.5163,-1.5143,-1.5116,-1.5159,-1.5174,-1.5179,-1.5096,-1.5095,-1.5094,-1.5094,0,0,-1.5253,-1.5231,-1.5237,-1.5233,-1.5219,-1.5224,-1.5235,-1.5233,-1.5236,-1.5231,-1.524,-1.5245,-1.5227,-1.5224,-1.5208,-1.5219,-1.5257,-1.5198,-1.5197,-1.5209,-1.529,-1.5305,-1.5313,-1.5243,-1.5244,-1.5245,-1.5291,0,-1.5301,-1.532,-1.5298,-1.5321,-1.5327,-1.5296,-1.5306,-1.5299,-1.5287,-1.529,-1.5277,-1.5281,-1.5256,-1.5255,-1.5264,-1.525,-1.5273,-1.5247,-1.5252,-1.5252,-1.5256,-1.5321,-1.5337,-1.538,-1.5297,-1.5298,-1.5298,0,-1.536,-1.5357,-1.5381,-1.5365,-1.5366,-1.5376,-1.5372,-1.5375,-1.5366,-1.5356,-1.5354,-1.5333,-1.5343,-1.5316,-1.533,-1.5312,-1.5313,-1.5306,-1.5308,-1.5308,-1.5278,-1.5323,-1.5394,-1.5401,-1.5307,-1.5306,-1.5306,0,-1.5416,-1.5418,-1.5432,-1.543,-1.5412,-1.5419,-1.5412,-1.5401,-1.5401,-1.5397,-1.5397,-1.5395,-1.5394,-1.5393,-1.5372,-1.5355,-1.5388,-1.536,-1.5381,-1.5381,-1.539,-1.539,-1.5463,-1.539,-1.5389,-1.5389,-1.5389,0,-1.5472,-1.5488,-1.5457,-1.5466,-1.5483,-1.5458,-1.5475,-1.5464,-1.5455,-1.5461,-1.5434,-1.544,-1.5413,-1.5416,-1.54,-1.5414,-1.5413,-1.5406,-1.5402,-1.5409,-1.541,-1.5409,-1.5406,-1.5391,-1.5391,-1.539,-1.539,0,-1.5539,-1.5519,-1.5532,-1.5513,-1.5509,-1.5522,-1.5506,-1.5513,-1.5499,-1.5507,-1.5508,-1.5486,-1.5488,-1.5467,-1.5466,-1.5455,-1.5476,-1.5466,-1.5479,-1.5477,-1.5499,-1.5497,-1.5574,-1.5583,-1.5504,-1.5505,-1.5506,0,-1.5576,-1.5587,-1.557,-1.5572,-1.5566,-1.5569,-1.5569,-1.5544,-1.5545,-1.5535,-1.5543,-1.5543,-1.5542,-1.5548,-1.5531,-1.553,-1.552,-1.5547,-1.552,-1.5526,-1.5521,-1.5521,-1.5522,-1.5553,-1.5554,-1.5555,-1.5556,0,-1.5645,-1.5634,-1.5635,-1.5632,-1.5632,-1.5628,-1.5623,-1.5626,-1.5599,-1.5601,-1.5603,-1.5602,-1.56,-1.5601,-1.5596,-1.5588,-1.5568,-1.5564,-1.5569,-1.5577,-1.5584,-1.5581,-1.5496,-1.5563,-1.5562,-1.5562,-1.5561,-1.5561,-1.5698,-1.5706,-1.5695,-1.5696,-1.569,-1.5685,-1.5691,-1.5677,-1.5678,-1.5675,-1.566,-1.5664,-1.5654,-1.5645,-1.5639,-1.5642,-1.5629,-1.5636,-1.5638,-1.564,-1.5645,-1.5583,-1.5641,-1.5641,-1.5641,-1.5641,-1.5641,0,-1.5766,-1.5756,-1.5758,-1.5751,-1.5752,-1.5731,-1.5724,-1.5726,-1.5731,-1.5723,-1.5722,-1.5724,-1.5724,-1.5707,-1.5705,-1.5711,-1.5701,-1.5711,-1.5711,-1.5709,-1.5656,-1.5653,-1.5719,-1.5719,-1.5719,-1.5719,-1.5719,-1.5719,-1.5801,-1.5814,-1.5802,-1.5811,-1.5802,-1.5806,-1.5803,-1.5799,-1.5792,-1.5795,-1.5795,-1.5784,-1.5772,-1.5769,-1.5768,-1.5763,-1.5764,-1.5777,-1.5769,-1.572,-1.5713,-1.5706,-1.5702,-1.5777,-1.5777,-1.5821,-1.5822,-1.5822]},{"header":{"parameterUnit":"m.s-1","parameterCategory":1,"la1":30.2991,"la2":30.254,"lo1":-89.0895,"lo2":-89.0444,"dy":0.0017,"dx":0.0017,"nx":28,"ny":28,"refTime":"2023-09-12T21:00:00:Z","depth":0,"parameterNumber":3,"parameterNumberName":"V-component_of_WINDS"},"data":[0,0,0,0,0,0,0,0,0,0,0,0,0,0,0,0,0,0,0,0,0,0,0,0,0,0,0,0,0,0,0,0,0,0,0,0,0,0,0,0,0,0,0,0,0,0,0,0,0,0,0,0,0,0,0,0,0,0,-1.8095,-1.8096,0,-1.8155,-1.8155,-1.8156,-1.8173,-1.8173,-1.8172,-1.8172,-1.8231,-1.8232,-1.8234,0,0,0,0,0,0,0,0,0,0,0,0,0,-1.7994,-1.7996,-1.8095,-1.8096,-1.8097,-1.8155,-1.8155,-1.8156,-1.8173,-1.8173,-1.8172,-1.8172,-1.823,-1.8232,-1.8234,0,0,0,0,0,0,0,0,0,0,0,0,0,-1.8044,-1.7997,-1.8095,-1.8112,-1.8114,-1.8154,-1.8155,-1.8156,-1.8173,-1.8173,-1.8172,-1.8172,-1.8229,-1.8232,-1.8235,-1.8261,0,0,-1.8243,-1.8244,0,0,0,0,0,0,0,0,-1.8041,-1.8048,-1.8109,-1.8111,-1.8114,-1.8156,-1.8141,-1.8192,-1.8173,-1.8151,-1.8172,-1.8171,-1.8206,-1.8211,-1.8223,-1.8264,-1.8267,-1.8243,-1.8245,-1.8246,-1.8247,0,0,0,0,0,0,0,-1.8038,-1.8045,-1.8119,-1.811,-1.8113,-1.8116,-1.8123,-1.8151,-1.818,-1.8153,-1.8154,-1.8161,-1.8207,-1.822,-1.8224,-1.8268,-1.8243,-1.8246,-1.8248,-1.8249,-1.8333,-1.8334,0,0,0,0,0,0,-1.8032,-1.8042,-1.8117,-1.8121,-1.8076,-1.8118,-1.8126,-1.8143,-1.818,-1.8185,-1.8161,-1.8161,-1.8215,-1.8221,-1.8226,-1.826,-1.8246,-1.8249,-1.825,-1.8333,-1.8334,-1.8334,0,0,0,0,0,0,-1.803,-1.8038,-1.8114,-1.8082,-1.8092,-1.8121,-1.814,-1.8144,-1.8157,-1.8187,-1.8192,-1.8169,-1.8215,-1.8222,-1.8253,-1.8262,-1.825,-1.8253,-1.8332,-1.8333,-1.8334,-1.8328,0,0,0,0,0,0,-1.8027,-1.8037,-1.8049,-1.8082,-1.8094,-1.8141,-1.814,-1.8146,-1.8162,-1.8163,-1.8195,-1.82,-1.8215,-1.8248,-1.8255,-1.8266,-1.8255,-1.8331,-1.8333,-1.8334,-1.8327,-1.8328,-1.8329,0,0,0,0,0,-1.8023,-1.8044,-1.8049,-1.8058,-1.8108,-1.8141,-1.8148,-1.8165,-1.8163,-1.8174,-1.8193,-1.8199,-1.826,-1.8251,-1.8259,-1.8271,-1.8331,-1.8332,-1.8334,-1.8327,-1.8328,-1.8329,0,0,0,0,0,0,-1.801,-1.8049,-1.8055,-1.8087,-1.8111,-1.8144,-1.8158,-1.8166,-1.819,-1.819,-1.821,-1.8218,-1.8246,-1.8262,-1.8251,-1.8299,-1.8296,-1.8299,-1.8288,-1.8289,-1.829,-1.8286,-1.8257,0,0,0,0,0,-1.8011,-1.8036,-1.8068,-1.8093,-1.8105,-1.813,-1.8145,-1.8156,-1.8181,-1.8191,-1.8212,-1.8235,-1.826,-1.8275,-1.8299,-1.8329,-1.8336,-1.8341,-1.8342,-1.8343,-1.8345,-1.8362,-1.8364,-1.8339,-1.8339,-1.8338,0,0,-1.8014,-1.8038,-1.8052,-1.8091,-1.8111,-1.8135,-1.8138,-1.8163,-1.8181,-1.8195,-1.8225,-1.8241,-1.8268,-1.8298,-1.8313,-1.8312,-1.8354,-1.8345,-1.8345,-1.8347,-1.8364,-1.8366,-1.8368,-1.8339,-1.8339,-1.8339,0,0,-1.803,-1.8051,-1.8075,-1.8095,-1.8124,-1.8141,-1.8146,-1.8178,-1.8189,-1.822,-1.8231,-1.8251,-1.8293,-1.8312,-1.8327,-1.835,-1.8357,-1.8357,-1.8363,-1.8379,-1.8381,-1.8383,-1.8391,-1.8393,-1.836,-1.836,-1.836,0,-1.8029,-1.8067,-1.8086,-1.8111,-1.8128,-1.8142,-1.8165,-1.8183,-1.8219,-1.823,-1.8229,-1.8281,-1.83,-1.8335,-1.8341,-1.8352,-1.8359,-1.8354,-1.8379,-1.8381,-1.8383,-1.8391,-1.8394,-1.8359,-1.8359,-1.8359,-1.8359,0,-1.8064,-1.809,-1.8105,-1.814,-1.8159,-1.8183,-1.8205,-1.8221,-1.8231,-1.8247,-1.8277,-1.8301,-1.833,-1.8339,-1.8348,-1.8375,-1.8373,-1.8375,-1.8373,-1.8385,-1.8393,-1.8396,-1.8359,-1.8359,-1.8359,-1.8359,0,0,-1.8075,-1.812,-1.8125,-1.8141,-1.8175,-1.8195,-1.8219,-1.8248,-1.8261,-1.8285,-1.8306,-1.834,-1.8342,-1.8359,-1.8371,-1.8385,-1.8402,-1.8385,-1.8386,-1.8388,-1.8432,-1.843,-1.8433,-1.8406,-1.8407,-1.8407,-1.8429,0,-1.8096,-1.8141,-1.8158,-1.8195,-1.8218,-1.8232,-1.8253,-1.8275,-1.829,-1.8312,-1.8329,-1.8353,-1.8354,-1.8364,-1.8379,-1.8397,-1.8411,-1.8395,-1.8425,-1.8426,-1.8418,-1.8437,-1.8436,-1.8456,-1.8433,-1.8433,-1.8433,0,-1.8126,-1.8151,-1.819,-1.8221,-1.8231,-1.825,-1.8278,-1.8299,-1.8324,-1.8334,-1.8353,-1.8364,-1.8389,-1.8384,-1.8419,-1.8408,-1.8421,-1.8431,-1.8432,-1.8436,-1.843,-1.8441,-1.8462,-1.8465,-1.8438,-1.8438,-1.8438,0,-1.813,-1.8173,-1.8202,-1.8216,-1.8252,-1.8265,-1.828,-1.8305,-1.8321,-1.8345,-1.8356,-1.8382,-1.8396,-1.8416,-1.8433,-1.8428,-1.8465,-1.8462,-1.8474,-1.8474,-1.8481,-1.8481,-1.8505,-1.849,-1.849,-1.8489,-1.8489,0,-1.8152,-1.8175,-1.8205,-1.8222,-1.8248,-1.8268,-1.8293,-1.8309,-1.8331,-1.8352,-1.8364,-1.8383,-1.8405,-1.8426,-1.8439,-1.8465,-1.8472,-1.848,-1.8483,-1.8479,-1.8478,-1.8488,-1.8487,-1.849,-1.849,-1.849,-1.849,0,-1.8161,-1.8182,-1.8214,-1.8246,-1.8254,-1.8272,-1.8299,-1.8316,-1.8332,-1.8358,-1.8365,-1.8389,-1.8415,-1.8434,-1.8467,-1.8476,-1.8504,-1.8507,-1.8495,-1.8497,-1.8508,-1.8506,-1.8539,-1.8544,-1.8525,-1.8525,-1.8525,0,-1.8174,-1.8192,-1.8226,-1.8241,-1.8257,-1.828,-1.8297,-1.8317,-1.8333,-1.8363,-1.8377,-1.8403,-1.8426,-1.8466,-1.8486,-1.8511,-1.8515,-1.8525,-1.8519,-1.8514,-1.8515,-1.8514,-1.8515,-1.8525,-1.8525,-1.8526,-1.8526,0,-1.8194,-1.8203,-1.8227,-1.8255,-1.8274,-1.8297,-1.8319,-1.833,-1.8354,-1.8371,-1.8398,-1.8416,-1.8449,-1.8475,-1.8502,-1.8517,-1.8525,-1.8527,-1.8531,-1.8527,-1.852,-1.8524,-1.8498,-1.8527,-1.8526,-1.8526,-1.8526,-1.8526,-1.8205,-1.8222,-1.8248,-1.8274,-1.8293,-1.8314,-1.8332,-1.835,-1.8373,-1.8403,-1.8412,-1.844,-1.8464,-1.8501,-1.8516,-1.8537,-1.8537,-1.8543,-1.8544,-1.8546,-1.8545,-1.8516,-1.8542,-1.8542,-1.8542,-1.8542,-1.8542,0,-1.8226,-1.8243,-1.8267,-1.8299,-1.8319,-1.8325,-1.835,-1.8367,-1.8391,-1.8413,-1.8435,-1.8465,-1.849,-1.8512,-1.8538,-1.8551,-1.8555,-1.8557,-1.8556,-1.856,-1.8544,-1.8538,-1.8553,-1.8553,-1.8553,-1.8553,-1.8553,-1.8553,-1.8239,-1.8268,-1.828,-1.8318,-1.8335,-1.8363,-1.8377,-1.8395,-1.8413,-1.8447,-1.8468,-1.8482,-1.8504,-1.8532,-1.8555,-1.8561,-1.8569,-1.857,-1.8577,-1.8562,-1.8561,-1.8559,-1.8554,-1.8572,-1.8572,-1.8591,-1.8591,-1.8591]}]]